Miscellaneous Local Product
Issued by NWS North Platte, NE

Home | Current Version | Previous Version | Text Only | Print | Product List | Glossary On
Versions: 1 2 3 4 5 6 7 8 9 10 11 12 13 14 15 16 17 18 19 20 21 22 23 24 25 26 27 28 29 30 31 32 33 34 35 36 37 38 39 40 41 42 43 44 45 46 47 48 49 50
000
AXUS43 KLBF 220410
MISLBF


WESTERN AND NORTH CENTRAL NEBRASKA HOURLY WEATHER ROUNDUP
NATIONAL WEATHER SERVICE NORTH PLATTE NE
1000 PM CST TUE NOV 21 2017

NOTE: "FAIR" INDICATES FEW OR NO CLOUDS BELOW 12,000 FEET WITH NO
SIGNIFICANT WEATHER AND/OR OBSTRUCTIONS TO VISIBILITY.

NOTE: STATIONS NOT REPORTING VARIABLES SUCH AS SKY/WEATHER OR
PRESSURE ARE PROVIDED BY RAWS AND APRS NETWORKS AND ARE NOT UNDER
NATIONAL WEATHER SERVICE QUALITY CONTROL.

...OBSERVATIONS IN AND NEAR THE EASTERN PANHANDLE OF NEBRASKA...

CITY           SKY/WX    TMP DP  RH WIND       PRES   REMARKS
PINE RIDGE     CLOUDY    19  17  92 CALM      30.23F
GORDON         FAIR      23  18  81 CALM      30.23F
CHADRON        CLOUDY    23  20  88 CALM      30.23F
ALLIANCE       CLOUDY    24  23  96 S8        30.24F WCI  15
SIDNEY         CLOUDY    29  24  82 SW12      30.27S WCI  19
CRESCENT LAKE    N/A     30  25  83 SE3         N/A
$$

...OBSERVATIONS IN NORTHERN NEBRASKA AND FAR SOUTHERN SOUTH DAKOTA...

CITY           SKY/WX    TMP DP  RH WIND       PRES   REMARKS
WINNER         FAIR      15   8  73 S3        30.33F
VALENTINE      CLEAR     16  11  80 CALM      30.30S
THEDFORD       CLOUDY    19  13  77 CALM      30.32R
AINSWORTH      CLOUDY    14  10  83 S5        30.31R WCI   7
O`NEILL        CLEAR     12  10  90 CALM      30.35F
ORD            CLEAR     13   8  81 CALM      30.35F
BROKEN BOW     CLEAR     17  10  74 CALM      30.33F
VALENTINE NWR    N/A     16  12  84 CALM        N/A
HALSEY           N/A     22  11  63 S3          N/A
BUTTE            N/A     16  10  75 CALM        N/A
CHAMBERS         N/A     13   2  62 W7          N/A  WCI   3
EWING            N/A     14   9  81 CALM        N/A
$$

...OBSERVATIONS IN SOUTHWEST NEBRASKA AND FAR NORTHEAST COLORADO...

CITY           SKY/WX    TMP DP  RH WIND       PRES   REMARKS
HOLYOKE        FAIR      28  21  74 S5        30.30S WCI  23
IMPERIAL       CLOUDY    27  21  78 S3        30.32R
OGALLALA       CLOUDY    27  22  82 CALM      30.31S
NORTH PLATTE   CLEAR     21  13  71 CALM      30.34R
MCCOOK         CLOUDY    24  15  68 CALM      30.36S
LEXINGTON      CLOUDY    23  14  68 CALM      30.36F
STAPLETON        N/A     21  13  72 CALM        N/A
GOTHENBURG       N/A     23  12  61 CALM        N/A
CALLAWAY         N/A     16  11  79 CALM        N/A
$$

...OBSERVATIONS IN CENTRAL LINCOLN COUNTY AREA...

CITY           SKY/WX    TMP DP  RH WIND       PRES   REMARKS
N.P. AIRPORT   CLEAR     21  13  71 CALM      30.34R
N.P. DOWNTOWN    N/A     27  17  64 CALM        N/A
N.P. HILLCREST   N/A     27  15  59 SE3         N/A
$$

...SOME OBSERVATIONS FROM AROUND THE REGION...

CITY           SKY/WX    TMP DP  RH WIND       PRES   REMARKS
DENVER         CLOUDY    35  28  75 SW9       30.26F WCI  28
COPPER MTN     CLOUDY    28  23  80 MISG      30.52S
GRAND JUNCTION CLOUDY    43  24  47 E6        30.40R
LARAMIE        CLOUDY    37  29  72 VRB6      30.28S WCI  32
CHEYENNE       CLOUDY    33  33 100 SW7       30.25F WCI  27
CASPER         CLOUDY    45  32  60 SW16      30.22R
BISMARCK       CLOUDY     8   4  83 E5        30.31F WCI   0
RAPID CITY     CLOUDY    21  15  78 SE5       30.21F WCI  15
PIERRE         CLOUDY    14   5  67 CALM      30.31F
SIOUX FALLS    CLOUDY    13   6  74 CALM      30.35F
OMAHA          CLOUDY    22  11  62 CALM      30.41S
GRAND ISLAND   CLOUDY    17  11  77 NW6       30.41R WCI   9
SCOTTSBLUFF    CLOUDY    30  22  72 E9        30.23F WCI  22
KANSAS CITY    CLEAR     27  15  61 NW9       30.39R WCI  18
HILL CITY      CLOUDY    23  15  71 SW3       30.40R
WICHITA        CLOUDY    33  14  45 N14       30.38S WCI  23
DODGE CITY     CLEAR     26  15  63 N3        30.40R
OKLAHOMA CITY  CLEAR     43  14  31 N20       30.34R
DALLAS         CLEAR     57  38  48 N20       30.19R
AMARILLO       CLEAR     34  26  72 NE8       30.39S WCI  27
$$




USA.gov is the U.S. government's official web portal to all federal, state and local government web resources and services.